Probability
90 90 87 74 74 71 68 58 68 61 61 61 58 55 48 52 55 55 55 48 35 32 32 35 39 39 29 26 23 23 16 16 10 10 10 10 10 10 3 10 6 0 0
84 77 77 77 74 65 55 48 55 65 61 61 52 52 48 45 48 45 42 35 35 39 32 29 26 16 19 26 16 13 16 19 13 10 16 16 16 16 10 10 3 3 3
81 74 74 71 68 61 55 52 52 55 58 55 52 52 45 45 45 45 39 32 32 32 29 23 23 23 23 19 19 16 13 13 13 13 13 10 3 10 10 6 0 3 3
77 71 74 68 61 61 48 48 52 52 55 48 45 42 39 35 32 26 35 32 26 23 19 26 23 13 13 16 10 10 16 13 13 13 6 10 6 6 6 3 3 3 3
74 71 71 74 61 48 45 45 45 39 32 35 35 39 32 23 16 19 26 26 23 19 19 16 13 6 6 6 3 3 6 6 6 6 3 0 0 0 3 3 3 0 3
71 74 68 61 52 39 39 39 39 35 35 35 35 29 23 13 3 6 19 13 16 19 13 13 13 10 6 0 0 0 0 3 3 3 3 0 0 0 0 3 0 0 0
74 61 61 58 45 45 32 39 35 35 35 29 26 23 19 16 3 3 0 3 16 13 13 13 10 6 0 6 0 0 0 0 0 3 3 3 0 0 0 0 0 0 0
68 58 58 61 52 48 39 35 29 32 26 29 26 23 23 10 3 0 0 0 6 13 16 16 13 10 10 3 0 0 0 0 0 0 0 3 0 0 3 0 0 0 3
58 58 58 58 55 48 42 39 35 35 29 29 26 26 26 10 3 0 0 3 6 6 10 3 3 3 3 0 0 3 0 0 0 0 0 0 0 0 0 0 0 0 0
58 55 55 55 52 52 42 35 29 29 23 26 16 26 16 10 3 3 0 0 3 6 6 3 3 3 3 0 0 3 3 0 0 0 0 0 0 0 0 0 0 0 0
55 52 52 48 52 48 39 23 19 19 26 26 16 16 10 6 3 3 0 0 3 3 6 6 3 0 0 0 0 0 0 0 0 0 0 0 0 0 0 0 0 0 0
55 45 45 42 32 19 26 26 16 16 16 16 10 13 6 3 3 3 0 0 0 3 3 3 3 0 0 0 0 0 0 0 0 0 0 0 0 0 0 0 0 0 0
52 52 32 32 29 29 23 23 19 19 13 13 10 10 6 6 3 3 0 0 0 0 3 0 0 0 0 0 0 0 0 0 0 0 0 0 0 0 0 0 0 0 0
32 35 35 29 26 19 19 19 23 23 16 6 6 0 3 3 3 3 3 0 0 0 0 0 0 0 0 0 0 0 0 0 0 0 0 0 0 0 0 0 0 0 0
29 26 19 19 19 16 10 10 10 13 6 6 6 3 3 3 0 0 0 0 3 0 0 0 0 0 0 0 0 0 0 0 0 0 0 0 0 0 0 0 0 0 0
26 23 19 19 16 13 10 6 3 0 0 0 0 0 0 0 0 0 0 0 0 0 0 0 0 0 0 0 0 0 0 0 0 0 0 0 0 0 0 0 0 0 0
23 16 13 13 13 6 10 6 6 0 0 0 0 0 0 0 0 0 0 0 0 0 0 0 0 0 0 0 0 0 0 0 0 0 0 0 0 0 0 0 0 0 0
16 13 10 10 10 3 6 3 3 3 0 0 0 0 0 0 0 0 0 0 0 0 0 0 0 0 0 0 0 0 0 0 0 0 0 0 0 0 0 0 0 0 0
13 13 10 10 6 6 3 3 3 0 0 0 0 0 0 0 0 0 0 0 0 0 0 0 0 0 0 0 0 0 0 0 0 0 0 0 0 0 0 0 0 0 0
3 0 3 6 0 0 0 0 0 0 3 0 0 0 0 0 0 0 0 0 0 0 0 0 0 0 0 0 0 0 0 0 0 0 0 0 0 0 0 0 0 0 0
3 0 0 0 0 0 0 0 0 3 3 0 0 0 0 0 0 0 0 0 0 0 0 0 0 0 0 0 0 0 0 0 0 0 0 0 0 0 0 0 0 0 0
0 0 0 0 0 0 0 0 0 0 3 3 0 0 0 0 0 0 0 0 0 0 0 0 0 0 0 0 0 0 0 0 0 0 0 0 0 0 0 0 0 0 0
0 0 0 0 0 0 0 0 0 3 3 3 0 0 0 0 0 0 0 0 0 0 0 0 0 0 0 0 0 0 0 0 0 0 0 0 0 0 0 0 0 0 0
0 0 0 0 0 0 0 0 0 0 0 0 0 0 0 0 0 0 0 0 0 0 0 0 0 0 0 0 0 0 0 0 0 0 0 0 0 0 0 0 0 0 0
0 0 0 0 0 0 0 0 0 0 0 0 0 0 0 0 0 0 0 0 0 0 0 0 0 0 0 0 0 0 0 0 0 0 0 0 0 0 0 0 0 0 0
0 0 0 0 0 0 0 0 0 0 0 0 0 0 0 0 0 0 0 0 0 0 0 0 0 0 0 0 0 0 0 0 0 0 0 0 0 0 0 0 0 0 0
Height
5886 5885 5884 5882 5881 5880 5879 5878 5878 5877 5877 5876 5876 5875 5875 5874 5874 5873 5873 5873 5873 5872 5872 5871 5871 5871 5871 5870 5870 5869 5868 5867 5866 5865 5864 5863 5862 5861 5859 5858 5856 5856 5855
5885 5884 5882 5880 5879 5878 5877 5877 5876 5875 5874 5873 5873 5872 5872 5871 5870 5870 5869 5869 5869 5868 5868 5867 5867 5866 5866 5865 5865 5864 5862 5861 5860 5859 5858 5856 5855 5855 5853 5852 5851 5849 5848
5884 5882 5880 5879 5878 5876 5875 5875 5874 5873 5872 5870 5870 5869 5868 5867 5867 5866 5865 5865 5864 5864 5863 5863 5862 5862 5861 5860 5859 5858 5857 5856 5854 5853 5852 5850 5849 5848 5847 5845 5844 5843 5841
5882 5880 5879 5877 5876 5875 5873 5873 5872 5870 5869 5868 5867 5866 5865 5864 5863 5862 5862 5861 5860 5860 5859 5858 5857 5857 5856 5855 5853 5852 5851 5850 5848 5847 5845 5844 5843 5841 5839 5838 5837 5835 5834
5880 5879 5877 5875 5874 5873 5872 5870 5869 5868 5866 5865 5864 5863 5861 5860 5859 5858 5858 5857 5856 5855 5854 5853 5853 5851 5850 5849 5847 5846 5845 5843 5842 5840 5839 5837 5836 5834 5833 5831 5829 5827 5825
5879 5877 5875 5874 5872 5871 5869 5868 5867 5865 5864 5862 5861 5860 5858 5857 5855 5854 5853 5852 5851 5850 5849 5848 5847 5846 5844 5843 5842 5840 5839 5837 5835 5834 5832 5831 5829 5827 5825 5823 5822 5819 5817
5877 5875 5873 5872 5871 5869 5867 5865 5864 5862 5861 5859 5858 5856 5855 5853 5852 5851 5849 5848 5847 5846 5844 5843 5842 5840 5839 5838 5836 5834 5833 5831 5829 5828 5826 5824 5822 5820 5818 5815 5813 5811 5809
5875 5873 5871 5870 5868 5866 5864 5862 5861 5859 5857 5856 5854 5853 5851 5849 5848 5847 5845 5844 5843 5841 5840 5838 5837 5835 5834 5832 5830 5829 5827 5825 5823 5821 5819 5817 5815 5813 5810 5808 5805 5803 5801
5872 5870 5868 5866 5864 5863 5861 5859 5857 5855 5853 5852 5850 5849 5847 5845 5844 5843 5841 5840 5838 5837 5835 5833 5832 5830 5828 5826 5825 5823 5821 5819 5816 5814 5812 5810 5807 5805 5802 5800 5798 5795 5793
5868 5867 5865 5863 5861 5859 5857 5855 5853 5851 5850 5848 5846 5844 5843 5841 5839 5838 5836 5835 5833 5832 5830 5828 5826 5824 5822 5820 5819 5817 5814 5812 5810 5807 5805 5802 5800 5797 5795 5792 5790 5787 5784
5864 5863 5861 5858 5856 5854 5852 5850 5848 5847 5845 5843 5841 5840 5838 5836 5834 5833 5831 5829 5828 5826 5824 5822 5820 5818 5816 5814 5812 5810 5807 5805 5802 5800 5797 5795 5792 5790 5787 5785 5782 5779 5776
5860 5858 5856 5854 5852 5849 5847 5845 5843 5842 5840 5838 5836 5835 5833 5831 5829 5827 5825 5824 5822 5820 5818 5816 5814 5812 5810 5807 5805 5802 5800 5798 5795 5793 5790 5788 5785 5782 5780 5777 5773 5770 5767
5854 5852 5850 5848 5846 5844 5842 5840 5838 5836 5834 5833 5831 5829 5827 5825 5823 5821 5819 5817 5815 5813 5811 5809 5807 5805 5803 5800 5798 5795 5793 5790 5788 5785 5783 5780 5777 5774 5771 5768 5765 5761 5758
5848 5846 5844 5842 5840 5839 5837 5835 5832 5830 5828 5826 5825 5823 5820 5818 5816 5814 5812 5810 5808 5806 5804 5802 5800 5798 5795 5793 5790 5788 5785 5783 5780 5778 5775 5772 5769 5766 5763 5759 5756 5753 5749
5840 5839 5837 5835 5834 5832 5830 5828 5826 5824 5822 5820 5818 5816 5813 5811 5809 5807 5805 5803 5801 5799 5797 5795 5793 5790 5788 5785 5783 5780 5778 5775 5773 5770 5767 5764 5761 5757 5754 5751 5747 5744 5740
5833 5831 5830 5828 5826 5824 5823 5821 5818 5817 5814 5812 5810 5808 5806 5804 5802 5800 5798 5796 5793 5792 5789 5787 5785 5782 5780 5777 5775 5772 5770 5767 5764 5761 5758 5755 5752 5749 5745 5742 5738 5735 5731
5824 5823 5821 5820 5818 5816 5814 5813 5811 5809 5807 5805 5802 5800 5798 5796 5794 5792 5790 5788 5786 5784 5781 5779 5776 5774 5772 5769 5767 5764 5761 5759 5756 5753 5750 5746 5743 5740 5737 5733 5730 5726 5722
5815 5814 5813 5811 5809 5807 5806 5804 5803 5801 5799 5797 5794 5792 5790 5788 5786 5784 5781 5779 5777 5775 5773 5771 5768 5766 5763 5761 5758 5756 5753 5750 5747 5744 5741 5738 5734 5731 5728 5725 5721 5718 5714
5806 5805 5804 5802 5800 5798 5797 5795 5794 5792 5790 5788 5786 5784 5782 5779 5777 5775 5773 5771 5769 5767 5765 5762 5760 5757 5755 5752 5750 5747 5744 5741 5738 5735 5732 5729 5726 5723 5719 5716 5713 5709 5706
5796 5795 5794 5792 5791 5790 5788 5786 5785 5783 5781 5780 5778 5775 5773 5771 5769 5766 5764 5762 5760 5758 5756 5754 5751 5749 5746 5744 5741 5738 5736 5733 5730 5727 5724 5721 5718 5714 5711 5708 5705 5702 5699
5787 5786 5784 5783 5782 5781 5779 5778 5776 5774 5772 5771 5769 5766 5764 5762 5760 5758 5756 5753 5751 5749 5747 5745 5742 5740 5737 5735 5732 5729 5727 5724 5721 5718 5715 5712 5709 5706 5703 5700 5697 5694 5691
5777 5776 5775 5774 5773 5771 5770 5768 5767 5765 5763 5761 5759 5757 5755 5753 5751 5749 5747 5745 5742 5740 5738 5736 5733 5731 5728 5726 5723 5720 5718 5715 5712 5709 5706 5704 5701 5698 5695 5692 5689 5686 5683
5768 5767 5766 5765 5763 5762 5760 5759 5757 5755 5754 5752 5750 5748 5746 5744 5742 5740 5738 5736 5734 5731 5729 5726 5724 5722 5719 5716 5714 5711 5709 5706 5703 5700 5698 5695 5692 5690 5687 5684 5681 5678 5676
5758 5757 5756 5755 5754 5752 5751 5749 5748 5746 5744 5743 5741 5739 5737 5735 5733 5730 5728 5726 5724 5722 5720 5717 5715 5712 5710 5707 5705 5702 5699 5697 5694 5692 5689 5686 5684 5681 5678 5676 5673 5670 5668
5748 5747 5746 5745 5744 5743 5741 5740 5738 5737 5735 5733 5731 5729 5727 5725 5723 5721 5719 5717 5715 5713 5710 5708 5706 5703 5701 5698 5695 5693 5690 5688 5685 5682 5680 5677 5675 5673 5670 5667 5665 5662 5660
5738 5738 5737 5736 5735 5734 5732 5730 5729 5727 5725 5724 5722 5720 5718 5716 5714 5711 5709 5707 5705 5703 5701 5698 5696 5693 5691 5688 5686 5683 5681 5678 5676 5673 5671 5669 5666 5664 5661 5659 5657 5654 5652
Wind_Speed
12 12 12 12 12 12 11 11 11 10 11 12 13 13 14 15 15 15 16 17 17 17 17 17 18 19 20 20 21 21 23 24 23 24 24 25 25 25 26 26 25 24 25
13 13 13 12 12 12 11 11 11 11 11 12 12 13 14 15 15 16 16 16 16 17 17 18 19 20 20 21 22 23 24 25 25 25 26 25 25 25 26 27 26 27 27
14 13 13 12 12 12 12 12 12 12 13 13 13 14 15 15 15 15 15 15 16 17 17 18 19 20 20 21 22 23 24 24 24 25 26 26 26 26 27 27 27 28 29
14 14 13 13 12 13 13 13 13 14 14 14 14 15 15 16 16 16 16 17 17 18 18 19 19 20 21 22 23 24 25 24 25 25 26 26 26 27 28 28 28 29 30
15 14 14 14 13 14 14 14 15 15 15 15 15 15 16 16 17 17 17 18 18 18 19 20 20 21 22 23 23 24 25 25 25 25 26 27 27 27 28 28 29 30 31
15 15 15 14 14 14 15 15 15 15 16 16 16 16 16 16 16 16 17 18 18 19 19 20 21 21 22 23 23 24 24 25 25 26 27 27 27 27 29 29 30 30 31
16 16 16 16 16 16 16 16 17 17 17 17 17 17 17 17 17 17 18 19 19 19 20 20 20 21 21 22 23 23 24 25 25 26 26 27 27 28 30 30 30 30 30
17 17 18 18 18 18 18 18 18 18 18 18 18 18 18 18 18 19 19 20 20 20 20 20 20 21 22 22 22 23 23 25 26 27 26 27 28 29 29 29 29 30 30
19 19 20 20 20 20 20 20 20 20 19 19 19 19 19 19 19 20 21 21 21 21 21 22 23 23 23 23 24 24 25 26 26 27 27 27 28 28 28 28 29 30 32
20 21 21 21 22 22 22 22 21 21 21 21 20 19 20 20 21 21 21 22 22 22 23 24 24 24 25 25 25 25 25 26 27 28 28 28 28 27 28 29 30 31 32
22 23 23 23 23 23 23 22 22 22 22 22 22 21 21 21 22 22 23 23 23 24 24 25 25 25 25 26 26 27 27 28 28 28 28 27 27 27 29 30 30 31 32
24 24 25 25 25 25 24 23 23 23 24 23 23 23 23 23 23 24 24 25 25 25 25 25 26 26 27 27 27 27 27 28 27 28 27 27 28 29 30 31 32 32 33
26 26 26 26 27 27 26 25 25 25 25 25 25 25 26 26 26 25 26 26 26 26 27 27 27 27 28 29 29 28 28 28 28 28 28 28 29 30 32 32 33 33 34
29 29 29 29 28 28 27 27 27 26 26 26 26 27 27 27 27 27 27 28 28 29 28 28 29 29 29 29 29 29 29 29 29 29 29 30 30 31 32 33 33 33 34
32 31 31 30 30 30 29 29 29 28 28 28 29 28 27 27 27 27 28 29 29 29 29 29 29 29 29 30 29 30 30 30 30 30 30 31 31 32 33 33 33 33 33
34 33 33 32 32 31 31 31 31 30 30 30 30 29 29 28 29 29 29 29 29 29 30 30 29 30 30 30 30 30 30 31 32 32 32 32 32 33 32 33 33 33 32
34 34 33 33 33 33 32 32 32 31 31 31 31 30 30 30 30 30 30 31 31 30 30 30 30 30 30 31 31 31 31 32 32 32 32 32 32 32 33 33 33 32 32
35 35 34 34 34 34 33 33 33 33 33 33 32 32 31 31 31 31 31 31 31 31 30 30 31 31 30 31 31 31 31 31 31 31 31 31 31 32 32 32 32 31 30
36 36 35 35 35 34 34 34 33 33 33 33 33 32 32 31 31 31 31 31 31 31 31 31 31 31 31 31 31 31 31 31 32 31 31 31 31 31 31 31 30 30 29
36 36 35 35 35 34 34 34 34 34 33 33 32 31 31 31 31 31 31 31 31 31 31 31 31 31 32 31 31 31 31 32 32 32 31 31 30 30 30 30 29 29 28
35 35 34 34 34 34 34 34 34 34 33 32 32 32 32 31 31 31 31 31 31 31 31 31 31 32 32 31 31 32 32 32 32 31 30 30 30 30 30 30 29 29 29
35 35 34 34 34 34 34 34 34 34 33 33 32 32 31 31 30 31 30 30 30 31 31 32 32 32 32 31 31 31 31 31 31 31 30 30 30 30 30 29 29 29 28
35 35 35 35 35 35 35 34 34 33 33 32 32 31 31 31 31 31 30 31 31 31 31 32 32 32 32 31 31 31 31 31 31 31 31 31 30 30 29 29 29 28 28
35 34 34 34 34 34 34 34 33 33 32 32 32 32 31 31 32 31 31 31 32 32 32 32 32 32 31 31 31 31 31 31 32 31 31 31 31 30 29 29 28 28 27
34 34 34 34 34 34 34 33 32 32 32 32 32 32 32 32 32 32 32 32 33 33 33 33 32 32 32 32 32 32 32 32 31 31 31 31 30 29 29 29 28 28 28
35 34 34 34 33 33 33 33 32 32 32 32 32 32 32 33 33 33 33 33 33 33 33 33 33 33 33 33 32 32 31 31 30 31 30 30 29 29 29 28 28 28 28
Wind_Direction
321 321 319 317 316 314 314 309 302 296 295 296 293 291 287 287 288 285 282 277 276 278 281 283 284 281 280 282 284 284 286 287 287 286 285 287 288 288 287 288 287 287 288
323 319 316 316 316 316 315 312 306 303 301 299 297 294 290 287 285 285 282 278 278 280 283 284 284 283 283 284 286 287 287 288 287 287 287 288 288 291 289 288 288 287 288
322 319 317 317 318 318 317 315 312 308 306 307 302 299 295 291 288 285 286 285 284 285 286 286 285 285 285 287 288 288 288 288 287 288 288 288 289 290 289 288 287 286 287
325 324 321 321 319 318 316 314 313 311 309 307 306 303 299 295 291 287 287 289 289 288 289 289 288 288 288 288 289 290 290 290 288 287 288 288 290 289 288 288 288 287 287
327 327 326 323 319 316 316 314 312 311 310 309 307 305 302 300 295 291 289 289 291 290 290 290 289 291 292 293 292 292 290 291 291 290 289 289 290 289 289 290 291 290 289
324 325 325 322 320 318 317 317 315 312 310 308 307 307 306 304 301 299 296 294 293 293 293 292 289 289 291 293 294 293 294 294 294 292 290 290 292 292 291 291 292 291 292
319 320 320 320 319 318 317 315 313 310 309 309 307 306 304 303 302 299 297 297 297 298 297 296 295 292 293 293 295 296 296 297 296 296 293 291 291 293 293 292 292 293 293
316 316 315 316 316 316 315 314 311 309 306 304 305 305 304 303 303 302 300 298 297 298 298 297 297 296 296 295 296 298 298 299 297 297 297 295 294 294 292 292 293 294 294
313 313 313 312 312 313 313 312 310 309 307 304 303 303 303 303 302 302 300 298 297 297 298 298 297 297 298 297 298 299 299 299 299 298 296 295 295 294 294 294 295 294 295
309 310 311 310 310 310 310 310 309 309 309 307 305 303 303 302 301 300 300 299 299 299 299 299 299 298 298 298 298 298 299 300 299 299 299 299 297 296 296 297 298 297 298
303 306 307 309 309 309 308 307 308 309 308 307 306 303 302 301 301 300 301 300 300 300 299 299 298 298 298 298 299 299 299 299 299 299 300 299 298 298 298 300 299 299 299
299 301 302 304 307 307 307 306 306 307 307 307 305 304 302 301 300 299 298 298 298 298 298 298 298 298 298 298 299 300 301 300 300 300 300 298 298 298 299 300 300 300 299
295 297 298 300 303 306 306 304 304 305 305 304 303 303 303 301 299 298 297 296 295 297 298 298 299 299 299 298 298 299 300 300 300 300 299 298 298 298 300 301 301 300 300
292 293 295 296 299 302 303 303 302 304 304 302 302 302 301 299 297 296 296 296 295 296 297 298 299 299 299 299 299 300 300 300 300 299 298 298 298 300 301 301 301 301 302
288 290 291 292 294 297 299 300 300 301 302 301 300 300 298 297 297 297 296 296 296 296 297 298 298 298 297 297 298 299 300 300 299 298 298 298 299 301 302 303 303 303 303
285 288 289 290 291 293 294 296 298 299 299 300 299 297 296 295 295 296 296 296 296 296 297 298 298 298 297 297 297 298 298 298 297 298 298 299 300 301 302 302 303 303 303
284 286 288 289 289 291 292 293 295 296 297 297 297 296 295 295 296 296 295 295 296 297 297 297 298 298 297 297 297 297 297 297 297 297 298 299 300 301 303 304 303 304 304
283 284 285 287 288 289 290 291 293 294 295 295 295 295 294 294 294 295 295 295 295 296 296 297 297 297 296 296 296 296 297 297 297 298 299 300 301 302 304 304 304 304 305
282 283 284 285 286 288 289 290 292 292 293 294 294 294 294 293 294 294 294 295 296 296 295 296 295 296 296 296 296 297 297 298 297 298 298 299 300 302 303 304 305 305 305
281 282 283 283 284 286 288 290 291 292 292 292 293 293 293 293 294 294 294 294 295 295 294 294 295 295 296 296 296 296 296 296 297 297 298 299 300 301 303 303 303 302 303
279 280 281 282 284 286 287 289 291 291 291 291 291 292 293 293 293 293 292 293 293 293 293 294 295 296 297 296 295 294 295 295 296 297 298 299 301 301 302 302 302 302 302
277 279 280 282 283 285 286 288 289 290 291 292 291 291 292 293 293 293 292 292 293 293 293 294 295 295 296 295 295 295 296 296 297 298 299 299 300 300 301 301 302 302 302
277 278 280 281 283 285 286 288 289 289 290 290 291 291 291 291 291 292 292 292 293 293 293 294 295 295 295 294 294 295 295 296 296 297 298 299 299 299 300 301 301 301 301
277 278 280 282 284 285 286 287 287 288 288 289 290 290 290 290 291 291 291 292 291 291 292 294 295 295 295 295 294 295 295 296 296 296 297 297 297 297 298 299 300 300 300
277 278 280 281 283 285 285 286 287 287 287 288 288 289 289 290 290 290 290 291 291 291 292 293 295 295 294 294 294 295 295 296 296 296 296 296 296 296 297 298 300 300 299
277 278 279 280 283 284 284 284 285 285 286 287 288 288 289 289 289 289 290 290 290 291 291 293 294 294 294 294 294 295 295 295 295 295 296 295 295 297 297 298 299 299 298